K7UHP Weather Reports


Display with metric or nautical units.
time (UTC)temp
F
wind
direction
speed
MPH
gust
MPH
rain 1hr
in
rain 24hr
in
rain mn
in
humidity
%
barometer
mb
20260508202315 73 294 8.0 12.0 0.00 0.00 0.00 22 1016.8
20260508201315 73 281 8.0 10.0 0.00 0.00 0.00 24 1016.9
20260508200315 73 293 7.0 10.0 0.00 0.00 0.00 23 1016.8
20260508195245 73 286 8.0 12.0 0.00 0.00 0.00 24 1016.9
20260508194215 72 26 1.0 5.0 0.00 0.00 0.00 25 1016.8
20260508193215 71 312 0.0 3.0 0.00 0.00 0.00 26 1016.9
20260508192145 71 270 3.0 8.0 0.00 0.00 0.00 27 1017.1
20260508191145 71 312 5.0 5.0 0.00 0.00 0.00 27 1017.1
20260508190145 71 311 6.0 13.0 0.00 0.00 0.00 28 1017.2
20260508185115 70 298 5.0 3.0 0.00 0.00 0.00 27 1017.3
20260508184045 70 283 1.0 5.0 0.00 0.00 0.00 32 1017.4
20260508183015 70 298 5.0 7.0 0.00 0.00 0.00 31 1017.5
20260508181945 70 283 6.0 7.0 0.00 0.00 0.00 31 1017.5
20260508180945 69 298 6.0 10.0 0.00 0.00 0.00 31 1017.5
20260508175915 70 296 7.0 8.0 0.00 0.00 0.00 31 1017.6
20260508174845 69 203 1.0 1.0 0.00 0.00 0.00 31 1017.6
20260508173845 69 308 5.0 5.0 0.00 0.00 0.00 32 1017.7
20260508172815 70 301 1.0 3.0 0.00 0.00 0.00 32 1017.6
20260508171745 69 249 2.0 3.0 0.00 0.00 0.00 31 1017.6
20260508170715 68 297 3.0 3.0 0.00 0.00 0.00 31 1017.6
20260508165715 69 257 3.0 5.0 0.00 0.00 0.00 35 1017.6
20260508164645 69 172 1.0 3.0 0.00 0.00 0.00 35 1017.5
20260508163645 68 169 0.0 0.0 0.00 0.00 0.00 37 1017.5
20260508162615 67 265 1.0 3.0 0.00 0.00 0.00 37 1017.5
20260508161545 66 276 2.0 3.0 0.00 0.00 0.00 37 1017.4
20260508160545 66 242 1.0 2.0 0.00 0.00 0.00 39 1017.5
20260508155545 64 292 0.0 1.0 0.00 0.00 0.00 40 1017.5
20260508154515 63 290 3.0 3.0 0.00 0.00 0.00 56 1017.4
20260508154115 62 279 2.0 3.0 0.00 0.00 0.00 59 1017.4
20260508153515 62 279 2.0 3.0 0.00 0.00 0.00 59 1017.4
20260508152445 62 287 3.0 5.0 0.00 0.00 0.00 60 1017.4
20260508151445 63 296 5.0 6.0 0.00 0.00 0.00 55 1017.2
20260508150444 64 299 2.0 3.0 0.00 0.00 0.00 45 1017.1
20260508145444 64 302 0.0 1.0 0.00 0.00 0.00 42 1017.0
20260508144443 63 291 0.0 0.0 0.00 0.00 0.00 41 1016.9
20260508143442 63 216 0.0 0.0 0.00 0.00 0.00 39 1016.9
20260508142442 63 214 0.0 0.0 0.00 0.00 0.00 40 1016.8
20260508141441 61 215 1.0 1.0 0.00 0.00 0.00 42 1016.8
20260508140441 60 89 0.0 0.0 0.00 0.00 0.00 43 1016.8
20260508135440 58 89 0.0 0.0 0.00 0.00 0.00 49 1016.7
20260508134439 57 89 0.0 0.0 0.00 0.00 0.00 48 1016.7
20260508133439 56 89 0.0 1.0 0.00 0.00 0.00 49 1016.6
20260508132438 54 89 0.0 0.0 0.00 0.00 0.00 54 1016.6
20260508131438 53 89 0.0 0.0 0.00 0.00 0.00 55 1016.4
20260508130437 53 89 0.0 0.0 0.00 0.00 0.00 55 1016.4
20260508125436 53 89 0.0 0.0 0.00 0.00 0.00 55 1016.3
20260508124435 53 89 0.0 0.0 0.00 0.00 0.00 54 1016.1
20260508123435 53 92 0.0 1.0 0.00 0.00 0.00 53 1016.0
20260508122434 53 93 0.0 1.0 0.00 0.00 0.00 53 1015.9
20260508121434 54 93 0.0 0.0 0.00 0.00 0.00 52 1015.8
20260508120433 53 93 0.0 0.0 0.00 0.00 0.00 53 1015.7
20260508115432 53 76 1.0 2.0 0.00 0.00 0.00 55 1015.6
20260508114432 53 37 0.0 1.0 0.00 0.00 0.00 57 1015.5
20260508113431 53 270 0.0 0.0 0.00 0.00 0.00 55 1015.5
20260508112430 54 105 0.0 0.0 0.00 0.00 0.00 53 1015.5
20260508111430 55 105 0.0 0.0 0.00 0.00 0.00 50 1015.4
20260508110429 55 82 0.0 1.0 0.00 0.00 0.00 51 1015.4
20260508105429 55 162 0.0 1.0 0.00 0.00 0.00 50 1015.4
20260508104428 55 117 1.0 2.0 0.00 0.00 0.00 51 1015.5
20260508103427 54 124 2.0 3.0 0.00 0.00 0.00 56 1015.5
20260508102427 54 131 2.0 3.0 0.00 0.00 0.00 57 1015.4
20260508101426 54 102 1.0 2.0 0.00 0.00 0.00 60 1015.5
20260508100425 53 112 2.0 3.0 0.00 0.00 0.00 64 1015.5
20260508095425 53 37 0.0 0.0 0.00 0.00 0.00 63 1015.4
20260508094424 53 19 0.0 0.0 0.00 0.00 0.00 63 1015.4
20260508093423 54 46 0.0 0.0 0.00 0.00 0.00 61 1015.3
20260508092423 54 271 0.0 1.0 0.00 0.00 0.00 60 1015.1
20260508091422 55 271 0.0 0.0 0.00 0.00 0.00 59 1015.1
20260508090421 55 117 0.0 0.0 0.00 0.00 0.00 58 1014.9
20260508085421 55 118 0.0 0.0 0.00 0.00 0.00 58 1014.9
20260508084420 55 118 0.0 0.0 0.00 0.00 0.00 57 1014.9
20260508083420 56 117 0.0 0.0 0.00 0.00 0.00 56 1015.0
20260508082419 57 117 0.0 0.0 0.00 0.00 0.00 55 1015.0
20260508081418 56 134 0.0 1.0 0.00 0.00 0.00 57 1015.0
20260508080418 56 115 0.0 2.0 0.00 0.00 0.00 55 1015.1
20260508075417 57 127 2.0 2.0 0.00 0.00 0.00 55 1015.1
20260508074416 57 129 0.0 1.0 0.00 0.00 0.00 58 1015.2
20260508073416 58 129 0.0 0.0 0.00 0.00 0.00 56 1015.2
20260508072415 57 150 0.0 1.0 0.00 0.00 0.00 58 1015.1
20260508071415 57 61 1.0 1.0 0.00 0.00 0.00 56 1015.0
20260508070414 58 316 0.0 0.0 0.00 0.00 0.00 55 1014.9
20260508065413 59 247 0.0 0.0 0.00 0.00 0.00 49 1014.9
20260508064413 59 266 0.0 0.0 0.00 0.00 0.00 47 1014.8
20260508063412 59 63 0.0 0.0 0.00 0.00 0.00 46 1014.7
20260508062411 59 63 0.0 0.0 0.00 0.00 0.00 44 1014.7
20260508061411 60 57 1.0 2.0 0.00 0.00 0.00 43 1014.7
20260508060410 62 104 1.0 1.0 0.00 0.00 0.00 39 1014.7
20260508055410 62 125 2.0 3.0 0.00 0.00 0.00 38 1014.6
20260508054409 63 144 2.0 3.0 0.00 0.00 0.00 37 1014.6
20260508053408 63 159 1.0 2.0 0.00 0.00 0.00 36 1014.5
20260508052407 64 203 2.0 3.0 0.00 0.00 0.00 36 1014.5
20260508051407 65 119 1.0 2.0 0.00 0.00 0.00 34 1014.4
20260508050406 65 138 1.0 2.0 0.00 0.00 0.00 35 1014.3
20260508045406 65 121 1.0 1.0 0.00 0.00 0.00 35 1014.3
20260508044405 65 144 2.0 3.0 0.00 0.00 0.00 36 1014.3
20260508043404 66 140 2.0 2.0 0.00 0.00 0.00 34 1014.3
20260508042404 66 120 2.0 2.0 0.00 0.00 0.00 34 1014.3
20260508041403 66 134 1.0 1.0 0.00 0.00 0.00 34 1014.3
20260508040402 66 118 2.0 3.0 0.00 0.00 0.00 34 1014.2
20260508035402 67 117 2.0 3.0 0.00 0.00 0.00 33 1014.1
20260508034401 68 106 3.0 3.0 0.00 0.00 0.00 31 1014.1
20260508033401 67 98 2.0 3.0 0.00 0.00 0.00 31 1014.0
20260508032400 67 85 2.0 3.0 0.00 0.00 0.00 31 1014.0
20260508031359 68 91 2.0 3.0 0.00 0.00 0.00 31 1013.9
20260508030358 68 75 3.0 5.0 0.00 0.00 0.00 32 1013.8
20260508025358 69 81 1.0 3.0 0.00 0.00 0.00 31 1013.7
20260508024357 71 50 1.0 1.0 0.00 0.00 0.00 31 1013.7
20260508023357 72 356 0.0 1.0 0.00 0.00 0.00 27 1013.6
20260508022356 74 345 0.0 1.0 0.00 0.00 0.00 25 1013.6
20260508021356 75 345 0.0 0.0 0.00 0.00 0.00 24 1013.7
20260508020355 75 345 1.0 1.0 0.00 0.00 0.00 24 1013.6
20260508015354 75 315 1.0 1.0 0.00 0.00 0.00 24 1013.6
20260508014354 75 301 1.0 2.0 0.00 0.00 0.00 23 1013.6
20260508013353 76 300 1.0 1.0 0.00 0.00 0.00 23 1013.6
20260508012352 76 302 1.0 1.0 0.00 0.00 0.00 23 1013.7
20260508011352 76 314 2.0 3.0 0.00 0.00 0.00 23 1013.7
20260508010351 76 269 5.0 6.0 0.00 0.00 0.00 24 1013.8
20260508005351 76 299 2.0 3.0 0.00 0.00 0.00 23 1013.8
20260508004350 76 302 2.0 5.0 0.00 0.00 0.00 23 1013.7
20260508003349 75 331 2.0 3.0 0.00 0.00 0.00 24 1013.6
20260508002349 75 332 2.0 3.0 0.00 0.00 0.00 23 1013.9
20260508001348 76 359 2.0 3.0 0.00 0.00 0.00 24 1014.0
20260508000349 75 11 3.0 6.0 0.00 0.00 0.00 24 1014.1
20260507235347 75 61 1.0 2.0 0.00 0.00 0.00 25 1014.1
20260507234346 75 265 0.0 1.0 0.00 0.00 0.00 25 1014.2
20260507233346 74 346 1.0 3.0 0.00 0.00 0.00 25 1014.3
20260507232345 74 29 3.0 6.0 0.00 0.00 0.00 25 1014.5
20260507231345 75 359 2.0 6.0 0.00 0.00 0.00 25 1014.5
20260507230344 74 0 2.0 5.0 0.00 0.00 0.00 25 1014.7
20260507225344 74 349 3.0 3.0 0.00 0.00 0.00 25 1014.8
20260507224344 74 317 3.0 8.0 0.00 0.00 0.00 26 1015.0
20260507223344 73 330 3.0 5.0 0.00 0.00 0.00 26 1015.2
20260507222314 72 285 5.0 6.0 0.00 0.00 0.00 28 1015.4
20260507221244 72 294 5.0 6.0 0.00 0.00 0.00 25 1015.6
20260507220214 73 271 7.0 8.0 0.00 0.00 0.00 25 1015.7
20260507215214 73 293 9.0 10.0 0.00 0.00 0.00 25 1015.7
20260507214214 73 276 9.0 10.0 0.00 0.00 0.00 26 1015.8
20260507213144 73 284 8.0 12.0 0.00 0.00 0.00 26 1015.8
20260507212144 73 291 8.0 10.0 0.00 0.00 0.00 25 1015.9
20260507211114 73 242 5.0 7.0 0.00 0.00 0.00 24 1016.0
20260507210114 73 288 5.0 8.0 0.00 0.00 0.00 24 1016.2
20260507205044 73 297 5.0 6.0 0.00 0.00 0.00 23 1016.1
20260507204044 72 221 6.0 10.0 0.00 0.00 0.00 23 1016.4
20260507203044 72 264 2.0 2.0 0.00 0.00 0.00 23 1016.5